Location: Shenandoah County Park
(38.9356°N, 78.4524°W)
Time: 07:34:51
(UTC-05:00)

Explorer 11/Cluster Stage 4 - Pass Details

Date: 03 December 2023
Orbit: 465 x 1224 km, 28.8° (Epoch: 22 February)

Event Time Altitude Azimuth Distance (km) Brightness Sun altitude
Rises 17:54:39 0° 257° (WSW) 3,302 11.8 -12.0°
Reaches altitude 10° 17:58:02 10° 241° (WSW) 2,206 10.3 -12.7°
Maximum altitude 18:01:33 19° 197° (SSW) 1,543 8.5 -13.3°
Drops below altitude 10° 18:04:38 10° 152° (SSE) 1,899 8.5 -13.9°
Enters shadow 18:06:48 - 136° (SE) 2,530 8.9 -14.3°
